Temp
64 64 64 64 64 64 64 64 64 64 64 64 64 64 64 64 65 76 79 76 77 72 71 83 84 83 84 78 78 78 71 68 69 69 73 76 74 78 80 78 79 76 73 70 73
63 63 63 64 64 64 64 64 64 64 64 64 64 64 64 64 75 78 73 73 72 71 81 81 79 81 80 76 77 75 69 71 75 77 73 76 75 76 75 75 75 71 71 71 73
62 62 63 63 63 63 64 63 63 63 64 63 63 64 63 67 74 77 71 73 72 74 82 82 82 80 75 76 74 73 69 72 73 75 75 74 72 76 74 71 71 73 70 69 70
62 62 62 62 63 63 63 63 63 63 63 63 63 63 63 76 66 77 71 72 71 81 82 80 79 75 72 70 73 68 71 72 70 71 70 70 74 72 72 68 67 67 67 68 67
61 61 61 62 62 63 63 63 63 63 63 63 63 63 74 74 76 77 68 71 79 79 79 77 75 74 69 72 70 68 71 70 71 68 70 70 69 70 69 66 67 65 64 65 65
60 60 61 61 61 62 63 63 63 63 62 63 63 62 73 66 77 80 77 75 80 79 78 78 76 77 72 71 68 70 69 70 71 70 70 66 70 67 67 66 64 63 63 63 61
60 60 60 61 61 62 62 62 62 62 62 63 64 71 70 72 79 79 76 77 78 79 75 78 78 74 74 67 70 68 64 70 71 70 67 68 63 62 66 66 63 62 63 61 60
60 60 60 60 61 61 61 62 62 60 62 64 64 72 68 73 80 74 78 75 78 78 77 77 78 74 71 70 68 64 65 60 69 66 66 66 62 66 66 64 64 63 63 60 59
59 59 60 60 60 60 61 61 61 61 63 64 68 70 67 69 70 77 79 73 74 75 75 75 75 70 68 64 62 63 58 62 64 67 65 62 63 63 64 64 65 64 62 60 59
59 59 60 60 60 60 60 61 62 62 65 69 70 64 69 66 69 73 76 76 71 70 69 69 69 64 63 62 53 60 59 62 60 64 63 62 62 61 62 63 63 63 62 60 59
59 59 60 60 60 61 62 66 63 61 63 67 67 69 67 68 71 69 72 71 71 67 60 64 60 56 62 64 66 65 61 61 66 65 60 62 64 68 62 60 61 61 61 59 58
60 60 60 60 60 61 64 62 66 63 59 67 67 68 68 70 62 65 72 65 62 58 63 56 53 65 68 64 63 62 58 58 64 62 57 60 60 66 65 59 61 61 60 59 55
59 59 59 60 60 60 63 64 68 68 60 65 66 64 66 66 64 63 66 66 61 58 57 57 63 64 62 58 56 57 56 57 58 58 58 57 54 59 65 60 57 59 61 59 57
59 59 59 59 55 64 59 67 68 68 54 59 56 63 63 66 59 72 69 65 59 57 59 58 65 58 56 55 57 53 63 59 57 53 48 57 45 60 62 51 51 53 56 56 56
59 59 58 59 59 59 65 66 69 64 37 62 55 63 63 61 61 56 65 61 58 57 57 57 53 53 54 56 59 55 59 56 55 51 50 52 45 55 58 50 50 52 53 55 55
58 58 58 57 57 60 62 62 63 44 33 51 54 52 52 57 53 56 57 61 60 58 57 57 58 59 59 58 59 58 54 51 51 50 40 50 48 51 53 52 56 53 53 54 54
57 57 57 60 55 57 59 54 39 33 59 52 49 52 53 50 49 52 50 49 50 44 46 54 54 57 57 52 53 54 50 42 38 35 36 49 48 52 62 57 60 52 52 54 53
57 57 56 59 58 57 55 46 31 46 53 53 53 52 49 52 50 48 47 47 53 55 52 48 46 54 56 56 53 48 51 42 31 36 42 40 39 51 54 57 56 56 54 54 51
57 57 56 58 56 57 49 37 39 50 58 55 50 47 48 49 51 49 49 50 55 55 46 48 48 54 55 58 57 49 44 55 39 31 34 44 47 54 46 45 49 53 52 51 50
55 54 55 63 57 53 45 39 43 56 58 56 48 52 49 48 46 48 49 55 54 57 60 54 44 49 49 52 53 51 55 40 41 30 30 43 45 48 41 44 46 49 50 50 50
53 48 61 64 56 48 38 40 47 57 58 52 52 51 53 53 49 47 53 56 57 55 55 55 47 42 45 44 46 44 43 48 48 43 36 37 45 57 55 51 47 49 50 50 49
50 43 62 58 44 44 38 44 49 52 56 52 55 54 53 51 48 49 50 57 59 55 46 51 43 38 45 52 54 54 48 49 40 36 42 42 46 52 57 56 53 50 51 52 51
46 48 57 55 39 39 45 45 48 48 51 50 47 52 56 51 41 49 53 61 60 53 50 49 36 33 36 45 45 41 47 49 49 43 38 36 44 49 49 52 54 51 51 52 51
46 40 47 47 49 44 42 43 42 49 48 51 52 53 49 46 48 46 48 50 52 53 49 51 39 36 39 47 48 38 42 45 43 36 39 41 45 45 48 49 51 53 52 52 51
44 42 50 38 40 43 45 44 41 41 47 50 45 47 46 40 41 41 45 48 43 48 47 46 33 38 42 47 48 44 42 43 41 43 40 45 47 54 52 52 52 53 52 51 50
40 41 44 48 49 44 43 40 40 43 42 40 42 47 46 41 42 38 43 43 41 41 41 42 34 38 35 42 44 41 44 45 45 45 47 50 50 63 61 56 52 52 50 48 49
42 42 40 40 44 42 41 42 43 47 47 47 42 41 42 45 48 44 41 41 40 39 37 34 33 33 31 38 38 29 35 41 46 49 50 43 50 40 45 47 49 50 50 48 49
MSLP
1018.71 1018.66 1018.52 1018.47 1018.37 1018.21 1018.08 1017.96 1017.79 1017.69 1017.50 1017.27 1017.00 1016.78 1016.53 1016.18 1015.56 1015.21 1014.23 1014.60 1014.41 1014.53 1014.49 1013.88 1013.50 1013.20 1012.93 1012.80 1012.89 1012.64 1011.39 1010.32 1010.38 1010.59 1010.66 1011.87 1011.93 1012.51 1012.86 1012.77 1013.30 1014.39 1015.27 1016.66 1016.88
1018.71 1018.66 1018.62 1018.47 1018.43 1018.29 1018.19 1018.05 1017.96 1017.77 1017.57 1017.40 1017.15 1016.87 1016.57 1016.24 1015.31 1014.45 1014.60 1014.49 1014.53 1014.64 1014.23 1013.56 1013.11 1013.05 1012.52 1012.84 1012.91 1012.42 1011.62 1010.72 1011.25 1011.16 1011.46 1012.02 1012.37 1012.61 1013.06 1013.36 1014.08 1015.37 1016.40 1017.03 1017.11
1018.87 1018.73 1018.64 1018.57 1018.52 1018.37 1018.24 1018.08 1017.98 1017.84 1017.63 1017.40 1017.14 1016.81 1016.45 1016.07 1015.08 1014.14 1014.58 1014.64 1014.71 1014.67 1014.14 1013.71 1013.26 1013.02 1012.68 1012.86 1012.83 1012.67 1011.94 1012.06 1012.19 1012.39 1012.50 1012.60 1013.01 1013.35 1013.38 1013.76 1014.83 1015.27 1016.54 1017.42 1017.54
1018.79 1018.79 1018.74 1018.66 1018.52 1018.42 1018.34 1018.19 1018.03 1017.93 1017.73 1017.49 1017.10 1016.68 1016.22 1015.64 1014.92 1014.56 1014.74 1014.80 1014.82 1014.46 1014.07 1013.72 1013.32 1012.86 1012.77 1012.68 1013.03 1012.86 1012.84 1012.91 1013.14 1013.46 1013.56 1013.40 1013.54 1013.64 1014.23 1015.32 1016.30 1017.04 1017.55 1017.89 1018.08
1018.70 1018.71 1018.71 1018.63 1018.54 1018.52 1018.36 1018.28 1018.17 1017.96 1017.79 1017.51 1017.13 1016.66 1015.92 1015.10 1014.11 1014.53 1014.81 1014.89 1014.70 1014.51 1014.02 1013.75 1013.44 1013.18 1012.89 1012.90 1013.29 1013.09 1012.94 1013.38 1013.56 1013.99 1014.04 1014.22 1013.98 1014.16 1014.78 1016.27 1017.12 1017.74 1018.09 1018.33 1018.62
1018.58 1018.62 1018.62 1018.61 1018.56 1018.54 1018.43 1018.32 1018.19 1018.04 1017.75 1017.50 1017.15 1016.84 1016.13 1015.07 1014.37 1014.40 1014.69 1014.89 1014.53 1014.46 1014.19 1014.05 1013.55 1013.58 1013.35 1013.31 1013.50 1013.45 1013.52 1013.37 1013.50 1013.73 1014.05 1014.35 1014.05 1014.81 1015.20 1016.49 1017.28 1017.89 1018.31 1018.77 1019.15
1018.45 1018.56 1018.50 1018.57 1018.51 1018.53 1018.43 1018.30 1018.16 1018.00 1017.75 1017.43 1017.16 1016.61 1015.74 1014.52 1014.25 1014.51 1014.73 1014.71 1014.78 1014.52 1014.30 1014.33 1014.18 1014.08 1013.80 1013.78 1014.02 1013.87 1013.54 1012.91 1012.90 1013.45 1013.88 1014.46 1014.24 1014.39 1015.42 1016.38 1017.04 1017.73 1018.27 1018.96 1019.49
1018.16 1018.38 1018.46 1018.42 1018.42 1018.40 1018.29 1018.21 1018.08 1017.94 1017.65 1017.39 1017.16 1016.53 1014.96 1014.63 1014.37 1014.72 1014.66 1014.76 1014.84 1014.87 1014.78 1014.78 1014.64 1014.38 1014.22 1014.44 1014.09 1013.73 1013.37 1012.40 1012.18 1013.49 1014.02 1014.35 1012.98 1013.88 1015.51 1016.13 1016.50 1017.30 1017.93 1018.78 1019.36
1017.77 1018.04 1018.24 1018.33 1018.30 1018.27 1018.21 1018.09 1018.00 1017.85 1017.61 1017.40 1016.96 1016.20 1014.61 1014.92 1014.63 1014.24 1014.32 1014.40 1014.84 1014.98 1015.10 1015.09 1014.76 1014.36 1014.64 1013.98 1013.34 1013.02 1012.12 1011.66 1012.05 1013.02 1013.57 1014.03 1012.90 1014.29 1015.42 1015.82 1016.02 1016.87 1017.66 1018.48 1019.20
1017.36 1017.63 1017.89 1018.11 1018.20 1018.15 1018.06 1017.93 1017.68 1017.72 1017.45 1017.11 1016.69 1016.37 1014.39 1014.18 1014.37 1014.45 1014.64 1014.60 1014.68 1014.96 1015.07 1014.96 1014.61 1014.24 1014.02 1013.43 1012.02 1011.38 1011.64 1011.68 1011.95 1012.59 1013.35 1013.32 1013.13 1014.11 1015.09 1015.48 1015.73 1016.50 1017.40 1018.22 1018.96
1016.93 1017.21 1017.48 1017.81 1017.99 1018.09 1017.94 1017.59 1017.66 1017.20 1016.62 1014.76 1014.30 1013.60 1013.78 1014.50 1014.64 1014.56 1014.61 1014.70 1014.72 1014.88 1014.58 1014.77 1014.21 1012.95 1012.57 1012.72 1012.16 1011.75 1011.79 1011.47 1011.53 1012.64 1013.32 1012.69 1012.47 1012.57 1014.27 1015.19 1015.44 1016.11 1016.98 1017.91 1018.90
1016.49 1016.67 1016.97 1017.46 1017.77 1017.91 1017.69 1016.72 1016.14 1016.56 1015.03 1013.92 1013.80 1013.70 1013.88 1013.96 1014.24 1014.51 1014.71 1014.49 1014.50 1014.14 1014.40 1014.94 1013.44 1012.44 1012.49 1012.75 1012.46 1012.29 1012.16 1011.88 1011.98 1012.92 1013.63 1012.71 1012.08 1012.18 1012.91 1013.98 1014.79 1015.59 1016.55 1017.58 1018.96
1016.02 1016.14 1016.61 1017.17 1017.55 1017.84 1016.96 1016.37 1016.42 1016.29 1015.06 1012.76 1012.54 1012.58 1012.74 1013.68 1013.10 1013.56 1014.28 1013.86 1013.87 1013.81 1013.81 1013.09 1012.20 1012.50 1012.68 1013.01 1013.03 1012.68 1012.35 1012.22 1012.38 1013.18 1013.66 1013.00 1011.60 1011.48 1011.76 1013.57 1014.96 1015.76 1016.45 1017.43 1018.41
1015.52 1015.83 1016.36 1016.84 1017.68 1016.60 1016.23 1015.98 1016.30 1016.38 1014.63 1011.83 1012.08 1011.42 1012.22 1012.81 1012.71 1012.40 1013.21 1013.48 1013.89 1013.23 1013.52 1012.91 1012.41 1012.90 1012.95 1012.92 1013.25 1012.53 1012.48 1012.98 1013.22 1013.62 1012.81 1013.09 1010.33 1009.97 1010.87 1013.08 1014.57 1015.71 1016.40 1017.28 1018.24
1015.04 1015.52 1016.01 1016.23 1015.79 1015.70 1015.16 1015.47 1015.90 1016.44 1014.35 1010.37 1011.70 1012.55 1012.06 1012.05 1012.24 1013.37 1013.40 1013.44 1012.87 1013.07 1013.42 1011.90 1012.61 1012.96 1012.73 1012.42 1013.32 1013.09 1013.48 1013.74 1013.88 1013.78 1013.51 1013.06 1012.84 1009.54 1010.49 1012.16 1013.19 1014.75 1016.09 1017.00 1018.15
1014.54 1015.29 1015.49 1015.89 1015.76 1015.35 1015.21 1015.82 1016.16 1016.18 1012.66 1010.92 1011.64 1012.07 1012.33 1012.28 1012.93 1013.60 1013.84 1013.79 1013.60 1013.10 1012.82 1012.24 1012.97 1012.93 1012.60 1013.14 1013.45 1014.00 1014.38 1014.77 1014.86 1014.58 1012.74 1012.48 1012.35 1008.08 1009.52 1009.97 1011.66 1013.87 1015.54 1016.65 1017.99
1014.21 1014.67 1015.05 1015.06 1014.75 1015.36 1015.56 1016.31 1015.94 1013.23 1009.76 1009.71 1010.65 1011.30 1011.37 1012.06 1012.88 1013.04 1013.17 1013.03 1012.47 1012.83 1011.88 1012.29 1012.08 1012.93 1013.25 1013.56 1014.41 1014.19 1014.45 1014.43 1014.35 1014.36 1012.25 1011.69 1011.06 1008.38 1008.74 1009.83 1010.58 1012.62 1014.61 1016.05 1017.63
1013.62 1014.32 1014.16 1014.18 1014.67 1014.93 1015.31 1015.16 1013.48 1009.27 1008.89 1009.51 1009.95 1010.64 1010.75 1011.04 1012.21 1012.58 1012.65 1012.07 1011.83 1011.04 1010.75 1010.51 1010.60 1011.58 1012.32 1011.78 1012.24 1013.45 1013.46 1013.24 1013.22 1013.29 1012.30 1012.85 1010.21 1008.99 1009.54 1010.15 1011.23 1012.61 1014.28 1015.73 1017.26
1013.18 1013.57 1013.37 1013.16 1014.28 1014.22 1014.39 1012.58 1010.84 1008.57 1007.76 1008.64 1009.95 1010.00 1010.18 1010.80 1011.33 1011.77 1011.39 1010.60 1009.95 1010.63 1010.61 1010.08 1010.33 1010.90 1011.80 1012.03 1012.40 1012.74 1012.90 1013.09 1013.48 1014.40 1013.57 1010.99 1009.80 1009.60 1010.46 1011.20 1011.90 1012.57 1013.89 1015.17 1016.68
1012.73 1012.76 1011.64 1011.77 1013.21 1013.67 1012.35 1011.10 1010.03 1008.88 1007.97 1007.88 1008.01 1008.36 1008.16 1009.50 1010.52 1010.56 1010.02 1008.90 1009.25 1009.20 1009.55 1009.91 1010.83 1011.71 1012.58 1013.03 1012.89 1012.61 1012.66 1013.53 1013.73 1013.06 1011.73 1009.04 1008.64 1007.99 1009.58 1010.32 1011.55 1012.28 1013.44 1015.01 1016.49
1012.23 1011.59 1009.62 1010.98 1012.86 1012.88 1010.95 1010.50 1009.57 1008.54 1008.19 1008.25 1007.55 1007.24 1007.27 1007.47 1008.71 1008.89 1007.70 1007.95 1008.52 1008.86 1010.00 1010.53 1011.49 1012.53 1013.00 1012.33 1011.65 1012.87 1012.40 1011.87 1011.76 1011.31 1010.19 1008.71 1006.68 1005.91 1006.64 1008.31 1009.69 1011.26 1012.51 1013.89 1015.40
1011.46 1010.53 1008.91 1010.60 1011.70 1011.16 1010.60 1009.91 1009.41 1008.33 1008.17 1008.24 1007.98 1007.22 1007.10 1007.49 1007.96 1007.79 1006.92 1006.62 1007.77 1008.70 1009.84 1010.39 1011.54 1011.76 1010.91 1011.07 1011.22 1010.82 1010.71 1011.17 1010.65 1010.52 1009.82 1008.64 1005.74 1006.29 1006.61 1007.53 1009.19 1010.62 1011.97 1013.36 1014.57
1010.53 1009.83 1009.54 1009.49 1009.21 1009.40 1009.58 1009.37 1009.33 1008.65 1007.80 1007.75 1007.65 1007.70 1007.55 1007.40 1008.17 1007.73 1006.96 1007.09 1007.89 1008.43 1008.66 1010.13 1011.68 1011.90 1011.23 1011.41 1011.72 1011.10 1010.45 1010.10 1010.18 1010.04 1008.40 1008.56 1005.82 1007.05 1007.65 1008.01 1008.99 1010.15 1011.28 1012.60 1014.03
1010.48 1009.50 1009.33 1008.93 1008.31 1008.45 1008.53 1008.23 1007.85 1007.70 1007.62 1007.49 1006.97 1007.61 1007.52 1007.51 1007.92 1007.36 1007.35 1008.03 1008.24 1008.56 1008.87 1009.30 1010.34 1009.96 1008.47 1007.25 1007.82 1009.32 1009.08 1009.33 1009.77 1009.53 1005.83 1006.32 1005.94 1007.16 1007.59 1007.99 1008.70 1009.54 1010.73 1011.90 1013.13
1010.07 1008.11 1007.41 1007.37 1007.80 1007.80 1007.91 1007.28 1007.05 1007.31 1007.45 1007.35 1007.20 1006.99 1007.10 1007.58 1008.14 1007.79 1008.34 1008.71 1009.51 1009.50 1009.92 1010.13 1010.18 1010.08 1008.21 1007.68 1007.70 1007.59 1007.67 1008.27 1008.39 1006.00 1007.35 1002.97 1005.33 1005.57 1006.36 1007.28 1007.92 1008.82 1010.45 1011.82 1012.87
1009.83 1009.04 1008.04 1006.58 1006.77 1007.19 1006.85 1006.31 1006.60 1006.73 1006.82 1006.61 1006.31 1006.61 1007.39 1007.18 1007.45 1008.00 1008.48 1008.92 1009.42 1010.38 1010.72 1010.70 1010.02 1010.23 1008.88 1007.46 1007.97 1007.52 1007.53 1006.57 1005.94 1005.75 1006.04 1004.37 1004.20 1004.80 1005.41 1007.25 1008.10 1008.79 1009.84 1010.92 1011.90
1009.71 1009.51 1008.87 1007.46 1006.30 1005.83 1005.17 1005.08 1005.36 1006.32 1006.35 1006.93 1007.68 1007.98 1007.35 1007.44 1007.98 1008.46 1008.71 1009.17 1009.42 1009.85 1010.63 1011.32 1010.80 1010.29 1008.33 1008.16 1008.21 1007.22 1004.81 1006.38 1005.06 1004.76 1004.76 1005.15 1003.43 1006.28 1007.06 1008.38 1008.59 1008.82 1009.62 1010.23 1011.02
Wind_Speed
3 3 4 4 5 6 6 7 8 9 10 11 13 12 12 12 13 5 4 4 3 1 3 1 3 0 2 2 2 2 5 5 3 6 5 6 7 3 1 3 3 4 6 5 6
2 3 4 4 5 5 6 6 7 8 10 11 13 12 11 12 6 7 5 3 1 3 4 5 3 2 3 1 1 4 4 3 3 1 3 7 5 4 6 7 6 7 7 5 6
2 2 2 3 4 5 5 6 7 8 10 12 13 13 11 9 6 4 4 2 3 4 3 2 1 3 3 2 2 1 4 2 2 1 1 3 4 2 6 7 7 2 5 4 5
3 3 3 4 4 5 6 6 7 8 10 12 13 14 14 4 5 3 3 2 2 3 3 3 3 3 3 4 1 6 2 2 1 2 2 5 1 5 5 6 4 4 4 3 4
5 5 4 4 4 5 6 6 7 8 10 11 12 12 6 5 3 5 4 3 4 3 5 3 5 3 7 2 3 7 2 2 4 4 5 3 8 8 5 4 5 5 4 3 3
7 6 6 5 5 6 6 6 7 8 10 12 11 12 4 9 4 5 4 4 3 5 5 5 4 2 4 4 6 3 4 6 6 9 7 8 10 3 5 6 5 4 3 2 3
8 8 7 6 6 6 6 7 8 9 11 10 8 5 5 9 1 4 4 1 1 3 4 2 2 5 1 3 1 3 7 9 11 12 8 8 10 12 10 9 7 5 4 2 2
9 9 8 7 6 6 6 7 7 10 9 5 5 5 8 3 1 4 6 4 4 2 1 1 2 1 4 3 3 6 5 8 8 9 5 9 12 10 10 11 9 5 4 2 1
10 9 9 8 7 6 6 7 6 8 5 5 5 5 7 3 4 7 6 4 6 4 4 3 3 3 5 7 8 9 11 11 5 9 5 12 3 10 9 12 10 8 6 4 3
11 10 9 9 8 6 6 6 4 5 5 4 3 5 8 3 4 5 4 8 3 8 6 6 6 8 8 11 11 10 13 10 11 7 9 11 14 9 10 11 11 9 7 6 5
12 11 10 9 8 6 5 4 5 6 7 10 3 3 4 5 4 6 6 8 6 7 8 9 10 15 19 17 18 11 12 14 11 4 5 14 16 12 14 12 12 10 9 8 6
12 12 11 10 8 7 6 5 6 4 9 16 15 12 3 5 4 8 9 10 9 13 12 5 16 19 15 10 16 16 16 17 15 4 5 13 19 16 14 17 15 13 11 10 9
11 11 12 11 9 5 9 7 3 4 8 10 13 11 10 11 10 15 16 9 9 14 17 18 7 6 13 10 12 16 18 15 15 1 11 14 21 23 21 11 9 11 11 11 12
10 10 13 12 6 8 8 8 6 4 9 13 10 7 8 8 11 8 19 7 7 14 13 17 19 7 10 16 14 17 15 15 14 8 11 4 12 9 15 15 15 15 14 14 14
10 11 12 18 4 11 3 10 11 2 10 7 7 3 5 15 7 4 2 4 17 10 8 6 8 12 17 16 13 8 2 7 11 13 16 17 11 7 5 14 19 18 18 17 15
11 12 13 12 2 1 7 7 7 5 15 6 6 7 8 13 2 5 8 1 2 13 15 17 4 10 11 2 10 10 6 2 4 9 15 17 18 13 13 15 16 19 19 19 18
13 12 11 4 5 7 10 5 6 9 6 11 8 10 14 10 7 8 14 15 13 10 20 18 18 6 5 7 4 13 8 5 6 7 10 2 15 16 4 6 11 22 23 22 19
13 13 10 10 7 14 7 9 10 18 25 8 4 9 12 13 8 9 11 12 22 17 9 15 11 24 18 24 12 18 18 8 7 9 6 2 12 8 2 9 3 18 20 20 20
11 9 8 8 10 11 9 15 12 10 16 20 7 8 11 8 6 12 15 12 12 23 15 11 11 2 8 11 17 11 17 14 5 2 4 8 9 5 7 7 7 18 21 21 20
4 7 12 14 15 8 12 14 12 14 4 12 21 17 17 14 13 16 15 12 16 23 18 2 7 3 6 3 7 8 10 8 7 7 9 9 13 10 11 16 15 19 20 20 19
5 5 6 16 11 7 9 8 17 20 8 7 20 15 20 14 18 13 11 7 19 16 20 9 4 5 6 13 18 9 11 11 8 9 4 5 8 10 14 19 22 19 20 21 21
4 7 9 14 11 5 11 5 9 11 19 11 14 18 20 10 12 18 19 18 17 14 16 13 3 8 18 4 14 19 15 21 8 7 10 7 11 2 2 13 17 19 19 20 21
5 7 3 13 11 15 12 21 22 18 15 13 13 17 16 19 9 22 24 14 14 16 19 13 6 3 4 7 4 11 16 17 20 1 17 8 8 3 4 8 14 17 18 18 19
4 6 7 6 11 18 17 23 11 10 19 20 14 22 16 18 12 11 14 5 8 15 4 12 7 11 18 6 12 12 19 22 17 11 21 21 11 5 9 13 15 15 17 18 20
4 6 8 6 16 20 14 6 21 22 17 19 12 21 20 12 18 22 19 15 1 5 5 14 10 18 25 24 11 9 16 25 26 34 19 35 23 13 15 16 18 16 16 18 19
3 4 3 14 16 25 21 18 19 13 3 4 15 18 19 17 19 11 21 14 14 7 8 4 9 14 21 25 24 22 12 25 32 32 31 33 26 9 15 10 12 16 17 18 20
1 2 2 7 20 14 20 24 29 21 18 20 5 9 14 19 11 2 5 2 1 9 16 9 7 8 16 11 17 8 34 20 25 30 22 30 31 4 5 8 11 12 15 16 18
Wind_Direction
61 49 48 43 33 28 23 17 12 2 356 349 340 336 333 332 303 243 294 24 360 158 287 190 225 268 237 95 358 307 248 233 214 227 203 158 194 159 50 225 95 40 42 29 356
41 18 13 18 13 13 10 8 359 353 348 341 336 331 331 330 288 274 67 29 360 180 225 213 194 202 167 119 245 267 269 314 6 263 210 172 245 161 222 183 165 116 92 49 47
290 329 340 348 348 349 351 352 348 344 340 338 334 328 327 312 280 69 52 77 132 244 268 243 162 266 255 256 163 140 280 62 164 98 298 199 226 228 252 236 38 334 94 56 56
243 271 299 317 327 329 331 335 338 335 332 333 330 326 323 263 316 88 78 114 174 277 199 180 223 244 276 249 171 252 199 267 108 156 204 226 338 246 264 57 73 65 76 62 52
235 248 266 283 302 312 317 320 323 326 325 328 326 327 307 249 279 113 125 137 183 186 215 225 257 280 257 243 227 244 212 209 187 180 228 287 250 268 199 138 121 109 104 83 52
237 236 246 266 282 295 302 306 314 319 322 321 319 314 269 262 90 127 121 140 217 215 198 225 296 284 291 252 246 27 272 253 226 224 223 227 240 194 173 161 156 155 120 78 38
240 241 239 251 268 284 294 301 309 320 319 315 311 292 255 267 47 142 162 178 200 245 221 239 268 227 137 226 198 293 280 256 234 224 230 219 239 226 141 168 167 173 166 144 30
235 242 247 250 260 275 290 298 312 319 313 311 305 270 262 77 170 183 175 132 131 124 294 133 214 214 265 119 201 250 249 260 108 169 165 203 266 152 172 183 191 194 197 212 78
226 235 243 247 252 265 283 291 295 302 300 284 259 258 264 136 193 188 199 182 135 123 87 136 206 244 182 223 244 208 265 226 225 195 156 205 237 162 194 205 208 205 205 206 188
224 227 233 242 248 255 271 273 299 270 227 248 265 258 187 207 137 156 153 168 145 144 137 182 205 223 223 219 233 256 224 255 253 160 216 215 252 171 194 210 214 207 201 199 196
219 219 221 226 230 239 258 232 223 201 214 216 198 265 131 95 161 180 160 159 143 201 211 204 219 221 227 228 252 281 285 264 267 99 266 244 253 229 197 213 219 215 206 197 181
219 216 211 210 208 206 251 237 339 357 287 225 242 252 221 192 160 175 180 182 192 209 207 187 230 240 245 274 239 245 255 257 268 150 251 268 264 257 200 214 219 216 205 190 170
221 213 206 194 180 191 224 221 2 317 261 236 209 219 199 180 212 179 185 201 209 217 203 228 235 243 222 220 226 238 246 253 259 23 239 273 267 250 236 212 217 228 203 186 178
227 220 205 169 169 208 220 228 209 323 268 236 201 221 162 187 227 185 197 174 204 228 206 250 244 195 200 229 216 248 233 250 262 253 262 167 282 273 208 209 212 208 197 185 170
231 221 203 165 176 194 202 164 184 246 269 64 126 73 160 184 113 148 179 181 222 196 171 211 182 202 222 226 203 253 64 225 243 254 270 252 267 270 187 220 211 203 196 184 172
229 220 195 200 233 273 101 118 161 174 233 179 134 163 156 197 113 106 173 172 358 246 227 262 28 220 222 176 200 131 118 112 254 260 255 238 231 255 205 226 199 191 191 179 172
253 220 194 178 211 137 130 133 185 199 178 204 177 181 191 176 178 183 181 187 189 189 226 226 221 191 177 151 160 198 181 244 238 209 257 322 216 253 192 185 205 183 184 178 172
244 212 213 213 147 146 166 187 215 228 217 81 128 171 193 164 209 181 179 209 218 225 290 213 223 199 199 215 196 200 200 198 240 235 266 21 237 240 336 110 167 178 179 175 176
227 222 223 193 170 172 194 206 218 212 208 217 145 200 203 192 228 193 216 225 210 208 205 206 241 271 180 223 215 175 224 231 316 143 272 214 249 237 164 177 183 174 177 179 177
204 219 224 180 161 199 214 210 235 226 333 214 217 200 215 189 196 192 192 218 223 202 211 244 266 159 150 188 265 225 171 182 209 226 236 240 241 236 208 196 184 182 184 179 179
213 221 199 168 156 206 237 235 234 236 232 234 222 239 228 216 203 197 226 198 203 196 192 222 220 137 144 202 189 182 211 221 217 224 252 280 243 192 200 189 187 186 184 181 183
217 220 151 145 196 197 224 214 245 245 222 237 260 258 246 229 212 231 229 230 193 155 179 195 170 235 229 211 237 224 214 207 207 194 234 279 257 98 101 182 178 183 185 185 187
218 222 240 168 218 210 219 227 232 247 220 212 217 229 233 239 226 231 237 240 188 182 173 159 192 199 249 209 184 226 215 229 231 316 230 202 248 97 128 159 178 183 183 185 184
265 210 197 217 234 222 211 227 224 212 239 226 233 227 231 239 217 252 228 206 195 208 206 150 156 207 228 227 152 200 206 207 217 228 239 235 251 175 206 187 180 184 184 183 183
234 226 195 203 219 225 235 219 228 233 235 213 229 228 215 225 225 233 236 251 37 239 186 174 220 217 244 256 250 199 203 202 207 226 213 246 237 215 202 195 192 179 173 181 186
274 259 296 244 209 217 222 219 238 244 178 261 225 211 219 220 215 242 228 219 205 179 197 195 235 223 250 245 244 252 244 214 215 228 231 247 250 236 193 183 162 176 174 184 190
165 247 293 261 226 206 212 221 229 229 240 240 225 295 238 231 250 302 101 33 143 195 187 186 209 206 246 238 252 255 230 233 233 226 228 236 243 107 121 175 193 179 182 188 196